Flag for China Weather past 2 weeks in Changchun, Jilin, China

16 °F

Mostly cloudy.

Feels Like: 10 °F
Forecast: 11 / 36 °F
Wind: 3 mph from South

Location: Changchun Airport

Current Time: Nov 30, 2015 at 11:13:15 PM

Latest Report: Nov 30, 2015 at 10:00 PM

Visibility: 4 mi

Pressure: 30.30 "Hg

Humidity: 79%

Dew point: 10 °F

Location of ChangchunLocation

Historic Weather in Changchun — Graph


Changchun temperature yesterday

Maximum temperature yesterday: 21 °F (at 12:00 PM)
Minimum temperature yesterday: 3 °F (at 3:00 AM)
Average temperature yesterday: 13 °F

Past Weeks' High & Low Weather Summary

High32 °F (Nov 16, 3:00 PM)86% (Nov 19, 6:00 AM)30.74 "Hg (Nov 19, 6:00 AM)
Low-4 °F (Nov 24, 7:00 AM)37% (Nov 16, 3:00 PM)30.09 "Hg (Nov 16, 5:00 PM)
Average13 °F64%30.41 "Hg
* Reported Nov 15 9:00 PM — Nov 30 9:00 PM, Changchun, Weather by CustomWeather, © 2015

Note: Actual official high and low records may vary slightly from our data, if they occured in-between our weather recording intervals... More about our weather records


Changchun weather history for previous 24 hours

Time TempWeatherWind HumidityBarometerVisibility
9:00 PM
Mon, Nov 30
18 °FMostly cloudy.3 mph73%30.30 "Hg4 mi
8:00 PM18 °FMostly cloudy.8 mph73%30.30 "Hg4 mi
7:00 PM18 °FMostly cloudy.8 mph79%30.30 "Hg4 mi
6:00 PM18 °FMostly cloudy.6 mph73%30.30 "Hg4 mi
5:00 PM18 °FIce fog.6 mph79%30.30 "Hg3 mi
4:00 PM18 °FIce fog.6 mph79%30.30 "Hg2 mi
3:00 PM18 °FLight snow. Ice fog.6 mph79%30.30 "Hg2 mi
2:00 PM18 °FLight snow. Ice fog.8 mph79%30.30 "Hg2 mi
1:00 PM18 °FLight snow. Ice fog.8 mph79%30.30 "Hg2 mi
12:00 PM18 °FLight snow. Ice fog.8 mph79%30.30 "Hg2 mi
11:00 AM18 °FLight snow. Ice fog.8 mph79%30.30 "Hg2 mi
10:00 AM18 °FLight snow. Ice fog.6 mph79%30.33 "Hg2 mi
9:00 AM16 °FLight snow. Ice fog.8 mph86%30.30 "Hg1 mi
8:00 AM14 °FIce fog.8 mph85%30.30 "Hg1 mi
7:00 AM5 °FIce fog.1 mph78%30.30 "Hg1 mi
6:00 AM5 °FIce fog.3 mph85%30.30 "Hg1 mi
5:00 AM7 °FIce fog.3 mph78%30.27 "Hg1 mi
4:00 AM7 °FIce fog.3 mph78%30.27 "Hg1 mi
3:00 AM3 °FIce fog.6 mph78%30.27 "Hg2 mi
2:00 AM5 °FIce fog.3 mph78%30.27 "Hg2 mi
1:00 AM9 °FIce fog.3 mph78%30.27 "Hg2 mi
12:00 AM9 °FIce fog.3 mph85%30.27 "Hg2 mi
11:00 PM
Sun, Nov 29
9 °FIce fog.3 mph85%30.27 "Hg2 mi
Weather by CustomWeather, © 2015

See weather overviewHow to use our weather pages